Total_Precipitation_Accumulation
1.19 1.22 1.75 2.54 2.50 1.82 1.42 1.01 0.57 0.60 0.50 0.27 0.17 0.16 0.36 0.71 0.91 1.12 0.96 0.66 0.40 0.33 0.33 0.48 0.64 0.59 0.53 0.47 0.42 0.41 0.43 0.42 0.37 0.35 0.35 0.30 0.24 0.23 0.23 0.21 0.20 0.20 0.23 0.22 0.23 0.28 0.32 0.38 0.45
1.06 1.69 2.39 2.91 2.22 1.58 1.48 1.07 0.73 0.50 0.31 0.21 0.16 0.14 0.27 0.37 0.31 0.52 0.99 0.95 0.42 0.38 0.38 0.45 0.68 0.67 0.64 0.56 0.50 0.50 0.50 0.48 0.41 0.36 0.34 0.30 0.26 0.25 0.27 0.24 0.22 0.22 0.23 0.26 0.27 0.28 0.33 0.39 0.46
1.39 2.18 2.84 2.60 1.72 1.46 1.49 1.02 0.67 0.32 0.19 0.19 0.19 0.17 0.25 0.36 0.40 0.66 0.92 0.68 0.39 0.36 0.40 0.56 0.77 0.72 0.71 0.64 0.60 0.61 0.58 0.53 0.47 0.40 0.38 0.36 0.34 0.29 0.29 0.28 0.27 0.27 0.28 0.30 0.31 0.32 0.36 0.42 0.42
1.63 2.30 2.38 1.88 1.45 1.19 0.97 0.77 0.42 0.29 0.21 0.13 0.15 0.21 0.21 0.31 0.45 0.67 0.62 0.44 0.41 0.41 0.42 0.57 0.71 0.67 0.68 0.66 0.67 0.70 0.61 0.56 0.50 0.44 0.43 0.44 0.41 0.36 0.35 0.37 0.40 0.38 0.39 0.37 0.38 0.39 0.43 0.44 0.44
1.88 2.20 1.96 1.48 1.40 1.06 0.75 0.57 0.36 0.38 0.32 0.19 0.16 0.27 0.34 0.40 0.44 0.58 0.62 0.50 0.49 0.50 0.43 0.45 0.57 0.59 0.65 0.63 0.60 0.69 0.67 0.65 0.54 0.47 0.45 0.45 0.43 0.44 0.45 0.49 0.51 0.51 0.52 0.48 0.47 0.48 0.44 0.45 0.50
1.97 1.89 1.65 1.43 1.47 1.20 0.98 0.68 0.47 0.48 0.36 0.21 0.16 0.35 0.42 0.48 0.55 0.60 0.65 0.67 0.63 0.61 0.50 0.42 0.50 0.57 0.62 0.63 0.69 0.81 0.81 0.73 0.60 0.50 0.50 0.49 0.51 0.50 0.51 0.52 0.52 0.58 0.64 0.62 0.56 0.54 0.47 0.47 0.52
2.10 1.83 1.44 1.15 1.30 1.51 1.15 0.79 0.64 0.53 0.41 0.30 0.21 0.40 0.47 0.48 0.50 0.57 0.67 0.76 0.88 0.87 0.73 0.58 0.56 0.61 0.71 0.78 0.82 0.94 0.98 0.90 0.73 0.58 0.58 0.58 0.54 0.50 0.49 0.54 0.56 0.58 0.61 0.63 0.61 0.58 0.53 0.52 0.53
1.79 1.69 1.28 1.22 1.34 1.56 1.14 0.78 0.60 0.47 0.40 0.27 0.23 0.41 0.62 0.49 0.49 0.58 0.65 0.79 0.88 0.93 0.88 0.80 0.74 0.75 0.82 0.88 1.02 1.11 1.21 1.31 1.07 0.78 0.69 0.65 0.55 0.50 0.52 0.53 0.56 0.60 0.68 0.68 0.66 0.65 0.61 0.62 0.59
1.77 1.85 1.58 1.67 1.59 1.19 0.84 0.77 0.53 0.37 0.34 0.29 0.25 0.26 0.36 0.40 0.44 0.54 0.62 0.67 0.67 0.68 0.72 0.77 0.80 0.86 0.87 0.82 0.89 1.11 1.29 1.46 1.20 0.83 0.85 0.77 0.55 0.56 0.60 0.60 0.71 0.76 0.81 0.81 0.81 0.82 0.79 0.77 0.69
1.84 1.71 1.45 1.36 1.17 0.94 0.80 0.70 0.51 0.44 0.43 0.36 0.33 0.31 0.35 0.39 0.47 0.53 0.56 0.58 0.55 0.55 0.52 0.54 0.57 0.66 0.73 0.72 0.93 1.18 1.22 1.34 1.09 0.92 0.95 0.92 0.97 0.91 0.70 0.69 0.87 0.98 1.03 0.97 0.95 0.98 0.91 0.78 0.60
1.41 1.37 1.04 0.83 0.65 0.60 0.58 0.50 0.37 0.41 0.49 0.37 0.33 0.34 0.36 0.41 0.44 0.46 0.48 0.47 0.44 0.43 0.40 0.39 0.41 0.44 0.53 0.74 0.98 1.20 1.25 1.29 1.33 1.36 1.22 1.20 1.16 0.96 0.79 0.76 0.80 0.87 0.95 0.89 0.99 0.99 0.84 0.73 0.60
1.27 1.07 0.85 0.75 0.55 0.48 0.45 0.38 0.37 0.34 0.37 0.29 0.25 0.28 0.36 0.42 0.41 0.38 0.42 0.46 0.48 0.46 0.44 0.38 0.30 0.31 0.39 0.53 0.75 1.03 1.10 1.16 1.24 1.24 1.04 1.13 1.13 0.95 0.89 0.97 1.00 0.97 0.95 1.06 1.10 1.06 0.99 0.82 0.64
1.22 0.98 0.74 0.52 0.43 0.40 0.39 0.39 0.32 0.26 0.26 0.23 0.25 0.33 0.42 0.46 0.42 0.34 0.34 0.38 0.45 0.54 0.61 0.59 0.43 0.37 0.39 0.45 0.50 0.64 0.74 0.85 1.13 1.21 0.95 0.93 0.95 0.99 1.02 0.93 1.07 1.13 1.12 1.12 1.11 1.01 0.95 0.92 0.80
1.07 0.80 0.58 0.44 0.39 0.35 0.38 0.35 0.27 0.29 0.27 0.23 0.25 0.33 0.43 0.47 0.45 0.41 0.37 0.35 0.34 0.37 0.49 0.57 0.55 0.54 0.52 0.45 0.40 0.40 0.46 0.59 0.74 0.76 0.72 0.75 0.78 0.88 1.05 0.98 0.97 1.04 1.22 1.27 1.20 1.09 1.09 1.06 0.88
0.70 0.63 0.60 0.50 0.43 0.42 0.45 0.46 0.28 0.26 0.26 0.21 0.19 0.21 0.25 0.29 0.34 0.38 0.34 0.28 0.26 0.27 0.32 0.42 0.50 0.56 0.58 0.59 0.58 0.48 0.47 0.54 0.56 0.56 0.62 0.69 0.69 0.82 0.99 0.95 0.85 0.83 0.99 1.16 1.27 1.29 1.22 1.08 0.96
0.72 0.67 0.86 0.63 0.55 0.52 0.54 0.49 0.24 0.23 0.21 0.18 0.17 0.15 0.16 0.17 0.19 0.25 0.29 0.29 0.26 0.26 0.25 0.31 0.36 0.43 0.53 0.62 0.69 0.66 0.62 0.58 0.52 0.49 0.47 0.50 0.52 0.61 0.80 0.87 0.78 0.78 0.94 1.14 1.29 1.37 1.40 1.25 1.18
0.85 0.78 0.72 0.62 0.49 0.42 0.36 0.30 0.21 0.17 0.14 0.13 0.11 0.10 0.09 0.11 0.12 0.14 0.17 0.21 0.25 0.25 0.23 0.24 0.28 0.33 0.40 0.51 0.58 0.58 0.57 0.54 0.52 0.52 0.41 0.39 0.41 0.53 0.73 0.91 0.94 0.94 1.03 1.14 1.19 1.36 1.40 1.42 1.31
0.60 0.48 0.46 0.40 0.33 0.28 0.22 0.18 0.15 0.11 0.08 0.07 0.07 0.08 0.07 0.05 0.07 0.10 0.11 0.16 0.23 0.25 0.24 0.24 0.26 0.27 0.31 0.36 0.43 0.48 0.46 0.44 0.50 0.49 0.47 0.51 0.58 0.65 0.84 1.06 1.15 1.26 1.27 1.29 1.42 1.68 1.65 1.48 1.41
0.45 0.31 0.25 0.20 0.17 0.15 0.13 0.12 0.11 0.08 0.07 0.06 0.05 0.05 0.06 0.05 0.05 0.04 0.04 0.07 0.14 0.19 0.18 0.19 0.24 0.26 0.25 0.24 0.29 0.34 0.35 0.44 0.51 0.59 0.64 0.69 0.72 0.79 1.00 1.21 1.44 1.56 1.43 1.41 1.58 1.81 1.94 1.74 1.58
0.44 0.34 0.23 0.20 0.13 0.10 0.11 0.10 0.09 0.09 0.07 0.05 0.05 0.04 0.04 0.04 0.04 0.04 0.03 0.02 0.03 0.06 0.09 0.13 0.15 0.18 0.17 0.18 0.23 0.32 0.39 0.45 0.58 0.74 0.85 0.87 0.85 0.90 0.95 1.15 1.35 1.42 1.45 1.47 1.55 1.72 1.99 1.91 1.72
0.28 0.24 0.19 0.18 0.12 0.11 0.14 0.14 0.10 0.10 0.07 0.05 0.05 0.06 0.06 0.05 0.05 0.04 0.04 0.04 0.03 0.04 0.04 0.07 0.12 0.15 0.15 0.23 0.41 0.68 0.92 1.01 1.02 1.04 1.19 1.28 1.24 1.19 1.16 1.19 1.32 1.40 1.52 1.53 1.56 1.59 1.76 1.87 1.81
0.26 0.15 0.13 0.12 0.13 0.13 0.11 0.11 0.09 0.10 0.10 0.10 0.09 0.10 0.11 0.10 0.08 0.06 0.05 0.06 0.04 0.04 0.04 0.05 0.10 0.15 0.19 0.35 0.68 1.07 1.40 1.48 1.49 1.61 1.65 1.71 1.63 1.50 1.47 1.47 1.56 1.50 1.48 1.44 1.45 1.46 1.59 1.84 1.89
0.27 0.17 0.13 0.13 0.12 0.12 0.07 0.07 0.07 0.11 0.15 0.18 0.19 0.19 0.20 0.16 0.13 0.10 0.08 0.07 0.09 0.11 0.12 0.15 0.21 0.34 0.51 0.65 0.83 1.13 1.32 1.44 1.58 1.74 1.88 1.99 2.11 2.08 2.00 1.92 1.77 1.59 1.50 1.50 1.52 1.53 1.58 1.67 1.73
0.20 0.16 0.16 0.14 0.12 0.15 0.07 0.07 0.11 0.18 0.22 0.25 0.26 0.27 0.25 0.20 0.14 0.11 0.10 0.11 0.17 0.24 0.27 0.31 0.41 0.51 0.58 0.70 0.84 0.98 1.07 1.23 1.43 1.58 1.75 1.88 2.00 2.03 1.97 1.84 1.61 1.44 1.37 1.43 1.54 1.56 1.59 1.57 1.60
0.13 0.13 0.18 0.23 0.26 0.20 0.07 0.09 0.17 0.18 0.18 0.20 0.22 0.20 0.16 0.16 0.16 0.14 0.14 0.20 0.25 0.33 0.38 0.45 0.53 0.63 0.65 0.73 0.83 0.91 0.97 1.10 1.27 1.32 1.36 1.38 1.38 1.42 1.45 1.45 1.41 1.35 1.29 1.36 1.53 1.61 1.64 1.64 1.59
0.09 0.11 0.21 0.31 0.28 0.18 0.08 0.15 0.24 0.16 0.11 0.08 0.10 0.12 0.13 0.18 0.21 0.20 0.20 0.28 0.33 0.41 0.52 0.60 0.68 0.70 0.72 0.80 0.89 0.90 0.99 1.11 1.21 1.15 1.10 1.12 1.16 1.24 1.25 1.32 1.32 1.31 1.32 1.33 1.39 1.50 1.62 1.64 1.57
0.07 0.08 0.11 0.13 0.10 0.10 0.09 0.16 0.15 0.07 0.05 0.05 0.10 0.15 0.20 0.27 0.30 0.31 0.33 0.38 0.41 0.50 0.61 0.68 0.73 0.76 0.83 0.86 0.95 1.09 1.13 1.13 1.11 1.00 0.95 0.96 0.92 0.93 1.04 1.14 1.20 1.16 1.17 1.21 1.30 1.43 1.49 1.57 1.64
0.04 0.06 0.09 0.08 0.10 0.13 0.13 0.16 0.13 0.09 0.10 0.13 0.17 0.24 0.35 0.44 0.45 0.47 0.53 0.56 0.56 0.57 0.65 0.73 0.80 0.87 0.90 0.92 1.03 1.20 1.14 0.92 0.76 0.66 0.70 0.74 0.78 0.82 0.89 0.86 0.82 0.81 0.86 0.89 0.99 1.16 1.25 1.28 1.37
0.07 0.05 0.05 0.06 0.07 0.18 0.31 0.43 0.46 0.45 0.38 0.42 0.43 0.49 0.63 0.68 0.69 0.69 0.70 0.72 0.66 0.67 0.73 0.78 0.83 0.94 0.97 0.93 1.03 1.06 0.85 0.61 0.49 0.47 0.45 0.44 0.47 0.52 0.60 0.55 0.52 0.58 0.62 0.59 0.68 0.78 0.89 0.98 1.03
0.07 0.06 0.05 0.07 0.09 0.17 0.34 0.54 0.65 0.70 0.68 0.79 0.85 0.96 0.89 0.83 0.83 0.77 0.70 0.68 0.57 0.58 0.67 0.75 0.84 0.90 0.84 0.80 0.79 0.65 0.47 0.37 0.34 0.30 0.25 0.22 0.22 0.22 0.29 0.32 0.32 0.40 0.51 0.52 0.58 0.63 0.65 0.71 0.75